Change the Weather History Date:

Tuesday, December 27, 2011

  Actual Average (KGSO) Record (KGSO)
Temperature  
Mean Temperature 43 °F 39 °F  
Max Temperature 52 °F 48 °F 71 °F (1971)
Min Temperature 34 °F 30 °F 8 °F (1935)
Degree Days  
Heating Degree Days 22 26  
Month to date heating degree days 631  
Since 1 July heating degree days 1311  
Cooling Degree Days 0 0  
Month to date cooling degree days 0  
Year to date cooling degree days 1483  
Moisture  
Dew Point 39 °F    
Average Humidity 87    
Maximum Humidity 100    
Minimum Humidity 65    
Precipitation  
Precipitation 0.60 in 0.10 in 0.67 in (1904)
Month to date precipitation 2.63  
Year to date precipitation 41.85  
Snow  
Snow 0.00 in 0.10 in 0.50 in (1980)
Month to date snowfall 0.6  
Since 1 July snowfall 0.7  
Snow Depth -    
Sea Level Pressure  
Sea Level Pressure 29.81 in    
Wind  
Wind Speed 3 mph (WSW)    
Max Wind Speed 20 mph    
Max Gust Speed 29 mph    
Visibility 8 miles    
Events Rain    
T = Trace of Precipitation, MM = Missing Value Source: NWS Daily Summary

Daily Weather History Graph

Daily Weather History Graph

Search for Another Location

Airport or City:

Trip Planner

Search our weather history database for the weather conditions in past years. The results will help you decide how hot, cold, wet, or windy it might be!

Date:

Astronomy

Dec. 27, 2011 Rise Set
Actual Time 7:29 AM EST 5:11 PM EST
Civil Twilight 7:01 AM EST 5:39 PM EST
Nautical Twilight 6:28 AM EST 6:12 PM EST
Astronomical Twilight 5:57 AM EST 6:43 PM EST
Moon 9:29 AM EST (12/27) 8:37 PM EST (12/27)
Length of Visible Light 10h 38m
Length of Day
9h 41m
Waxing Crescent, 11% of the Moon is Illuminated
Dec 27
Waxing Crescent
Jan 1
First Quarter
Jan 9
Full
Jan 16
Last Quarter
Jan 23
New

Hourly Weather History & Observations

Time (EST) Temp. Windchill Dew Point Humidity Pressure Visibility Wind Dir Wind Speed Gust Speed Precip Events Conditions
12:15 AM 35.1 °F - 31.8 °F 88% 30.23 in 10.0 mi Calm Calm - N/A   Clear
12:35 AM 35.1 °F - 32.2 °F 89% 30.21 in 10.0 mi Calm Calm - N/A   Clear
12:55 AM 35.1 °F - 32.2 °F 89% 30.20 in 10.0 mi Calm Calm - N/A   Clear
1:15 AM 34.9 °F - 32.0 °F 89% 30.19 in 10.0 mi Calm Calm - N/A   Clear
1:35 AM 36.0 °F - 32.4 °F 87% 30.18 in 10.0 mi Calm Calm - N/A   Clear
1:55 AM 36.3 °F - 32.4 °F 86% 30.19 in 10.0 mi Calm Calm - N/A   Clear
2:15 AM 36.7 °F - 32.9 °F 86% 30.17 in 10.0 mi Calm Calm - N/A   Clear
2:35 AM 36.9 °F - 32.5 °F 84% 30.16 in 10.0 mi Calm Calm - N/A   Clear
2:55 AM 36.9 °F - 32.7 °F 85% 30.16 in 10.0 mi Calm Calm - N/A   Clear
3:15 AM 36.5 °F - 33.1 °F 87% 30.16 in 10.0 mi Calm Calm - N/A   Scattered Clouds
3:35 AM 37.0 °F - 32.5 °F 84% 30.14 in 10.0 mi Calm Calm - N/A   Overcast
3:55 AM 37.8 °F - 33.3 °F 84% 30.13 in 10.0 mi Calm Calm - N/A   Overcast
4:15 AM 37.9 °F - 33.3 °F 83% 30.10 in 10.0 mi Calm Calm - N/A   Scattered Clouds
4:35 AM 37.9 °F - 33.4 °F 84% 30.08 in 10.0 mi Calm Calm - N/A   Mostly Cloudy
4:55 AM 38.8 °F - 34.9 °F 86% 30.07 in 10.0 mi Calm Calm - N/A   Overcast
5:15 AM 38.8 °F - 35.6 °F 88% 30.05 in 10.0 mi Calm Calm - N/A Rain Light Rain
5:35 AM 38.3 °F - 36.5 °F 93% 30.03 in 10.0 mi Calm Calm - N/A   Overcast
5:55 AM 38.3 °F - 37.0 °F 95% 30.02 in 10.0 mi Calm Calm - N/A Rain Light Rain
6:35 AM 39.4 °F - 37.8 °F 94% 30.01 in 10.0 mi Calm Calm - N/A   Overcast
7:15 AM 39.6 °F - 38.1 °F 95% 29.97 in 7.0 mi Calm Calm - N/A Rain Light Rain
7:35 AM 39.4 °F - 37.9 °F 95% 29.95 in 5.0 mi Calm Calm - 0.02 in Rain Rain
7:55 AM 39.2 °F - 37.8 °F 95% 29.93 in 4.0 mi Calm Calm - 0.05 in Rain Rain
8:15 AM 38.7 °F - 37.4 °F 95% 29.90 in 5.0 mi Calm Calm - 0.02 in Rain Rain
8:35 AM 38.5 °F 36.1 °F 37.4 °F 96% 29.90 in 4.0 mi NE 3.5 mph - 0.04 in Rain Rain
8:55 AM 38.3 °F 35.9 °F 37.4 °F 97% 29.86 in 3.0 mi ENE 3.5 mph - 0.07 in Rain Rain
9:15 AM 38.3 °F 34.8 °F 37.6 °F 97% 29.83 in 3.0 mi NNE 4.6 mph - 0.01 in Rain Rain
9:35 AM 38.3 °F - 37.6 °F 97% 29.82 in 3.0 mi Calm Calm - 0.02 in Rain Rain
9:55 AM 38.7 °F - 38.1 °F 98% 29.79 in 2.0 mi Calm Calm - 0.04 in Rain Rain
10:35 AM 39.4 °F 35.2 °F 39.2 °F 99% 29.71 in 1.2 mi NE 5.8 mph - 0.08 in Rain Heavy Rain
10:55 AM 40.3 °F - 40.1 °F 99% 29.67 in 2.0 mi Calm Calm - 0.10 in Rain Rain
11:15 AM 42.1 °F 40.2 °F 41.9 °F 99% 29.66 in 1.0 mi North 3.5 mph - 0.06 in Rain Rain
11:35 AM 43.0 °F - 43.0 °F 100% 29.61 in 1.5 mi Calm Calm - 0.13 in Rain Light Rain
11:55 AM 43.5 °F 39.4 °F 43.5 °F 100% 29.60 in 1.5 mi WNW 6.9 mph - 0.17 in Rain Rain
12:15 PM 44.6 °F 39.7 °F 44.6 °F 100% 29.61 in 1.0 mi WNW 9.2 mph - 0.15 in   Overcast
12:35 PM 44.6 °F 43.1 °F 44.6 °F 100% 29.58 in 5.0 mi NW 3.5 mph - 0.17 in Rain Light Rain
12:55 PM 45.3 °F - 45.3 °F 100% 29.55 in 10.0 mi Calm Calm - 0.17 in   Mostly Cloudy
1:15 PM 48.0 °F - 48.0 °F 100% 29.54 in 10.0 mi South 3.5 mph - N/A   Mostly Cloudy
1:35 PM 49.8 °F - 49.8 °F 100% 29.55 in 10.0 mi West 9.2 mph - N/A Rain Rain
1:55 PM 52.0 °F - 51.3 °F 97% 29.54 in 10.0 mi SW 12.7 mph 16.1 mph N/A   Overcast
2:15 PM 52.5 °F - 49.3 °F 89% 29.55 in 10.0 mi WSW 13.8 mph 28.8 mph N/A   Mostly Cloudy
2:35 PM 52.3 °F - 47.1 °F 82% 29.54 in 10.0 mi SW 15.0 mph 20.7 mph N/A   Mostly Cloudy
2:55 PM 51.6 °F - 45.7 °F 80% 29.54 in 10.0 mi SW 19.6 mph 27.6 mph N/A   Mostly Cloudy
3:15 PM 51.1 °F - 45.1 °F 80% 29.56 in 10.0 mi SW 17.3 mph 25.3 mph N/A   Overcast
3:35 PM 50.9 °F - 45.0 °F 80% 29.57 in 10.0 mi WSW 11.5 mph 18.4 mph N/A   Overcast
3:55 PM 50.7 °F - 45.0 °F 81% 29.58 in 10.0 mi West 9.2 mph - N/A   Overcast
4:15 PM 50.2 °F - 44.8 °F 82% 29.58 in 10.0 mi WSW 11.5 mph - N/A   Overcast
4:35 PM 50.0 °F - 44.6 °F 82% 29.58 in 10.0 mi SW 9.2 mph - N/A   Overcast
4:55 PM 50.2 °F - 44.4 °F 81% 29.59 in 10.0 mi SW 6.9 mph 16.1 mph N/A   Overcast
5:15 PM 50.2 °F - 44.2 °F 80% 29.60 in 10.0 mi SW 8.1 mph - N/A   Overcast
5:35 PM 50.2 °F - 44.1 °F 79% 29.60 in 10.0 mi SW 8.1 mph - N/A   Overcast
5:55 PM 50.2 °F - 44.1 °F 79% 29.60 in 10.0 mi WSW 6.9 mph - N/A   Overcast
6:15 PM 50.0 °F - 44.4 °F 81% 29.60 in 10.0 mi WSW 8.1 mph - N/A Rain Light Rain
6:55 PM 49.3 °F - 43.5 °F 81% 29.61 in 10.0 mi WSW 5.8 mph - N/A   Overcast
7:15 PM 48.9 °F - 43.7 °F 82% 29.62 in 10.0 mi WSW 6.9 mph - N/A   Overcast
7:35 PM 48.6 °F - 44.4 °F 86% 29.63 in 10.0 mi WSW 6.9 mph - N/A   Overcast
8:15 PM 47.8 °F - 40.3 °F 75% 29.66 in 10.0 mi West 9.2 mph - N/A   Clear
8:35 PM 47.3 °F - 36.9 °F 67% 29.67 in 10.0 mi WSW 11.5 mph 19.6 mph N/A   Clear
9:15 PM 45.9 °F 41.2 °F 35.1 °F 66% 29.68 in 10.0 mi WSW 9.2 mph 17.3 mph N/A   Clear
9:35 PM 45.3 °F 40.6 °F 34.5 °F 66% 29.68 in 10.0 mi West 9.2 mph - N/A   Clear
9:55 PM 44.8 °F 41.0 °F 33.6 °F 65% 29.69 in 10.0 mi West 6.9 mph - N/A   Clear
10:15 PM 44.1 °F 40.1 °F 33.1 °F 65% 29.70 in 10.0 mi West 6.9 mph - N/A   Clear
10:35 PM 43.5 °F 37.9 °F 32.9 °F 66% 29.70 in 10.0 mi West 10.4 mph 16.1 mph N/A   Scattered Clouds
10:55 PM 43.7 °F 39.1 °F 32.4 °F 64% 29.70 in 10.0 mi West 8.1 mph - N/A   Scattered Clouds
11:15 PM 42.8 °F 41.1 °F 32.2 °F 66% 29.70 in 10.0 mi WSW 3.5 mph - N/A   Clear
11:35 PM 42.1 °F 39.2 °F 32.0 °F 67% 29.70 in 10.0 mi West 4.6 mph - N/A   Clear
11:55 PM 41.5 °F 39.6 °F 32.0 °F 69% 29.70 in 10.0 mi West 3.5 mph - N/A   Clear